sat.trackr.live / text

‹ back to catalog

BEIDOU-2 M3 (C11)

NORAD 38250 · 2012-018A

PAYLOAD ACTIVE UNKNOWN

§ Identity

Operator
Country
PRC
Launch date
2012-04-29
Launch site
XICLF
Launch vehicle
Mass (kg)
RCS (m²)
7.14

Purposes: nav

External: N2YO · Heavens-Above · Gunter

§ Orbital elements

Epoch: 2026-09-07T08:14:19.258080Z

Period
773.24 min
Inclination
55.6835°
Eccentricity
0.0022905
Mean motion
1.86229821 rev/d
Perigee alt
21,464.2 km
Apogee alt
21,592.1 km
Semi-major
27,906.3 km
B*
0.0000e+0
RAAN
302.1014°
Arg perigee
272.4999°
Mean anomaly
87.3124°
Rev number
9,747

§ Raw data

BEIDOU-2 M3 (C11)1 38250U 12018A   26250.34327845 -.00000028  00000+0  00000+0 0  99902 38250  55.6835 302.1014 0022905 272.4999  87.3124  1.86229821 97474

JSON: /api/v1/satellites/38250 · /tle

For live sub-satellite position, see the globe view (requires WebGL).

§ Visibility from observer

Set your observer location to see the next 7 days of passes ≥ 10°. The values pass through the URL so the page stays shareable.

No JS? Fill the form by hand. The geolocation button needs JavaScript.